Location: Arnolds Mill
(42.3415°N, 73.5951°W)
Time: 10:50:51
(UTC+00:00)

BlueWalker 3 - Pass Details

Date: 28 June 2024
Orbit: 480 x 492 km, 53.2° (Epoch: 13 July)

Event Time Altitude Azimuth Distance (km) Brightness Sun altitude
Rises 05:11:23 0° 306° (NW) 2,539 5.9 -24.3°
Reaches altitude 10° 05:13:33 10° 305° (NW) 1,657 4.9 -24.3°
Enters shadow 05:15:29 29° 300° (WNW) 907 3.4 -24.3°
